{"data":{"norad_id":29486,"intl_designator":"2006-042A","name":"GPS BIIRM-2 (PRN 31)","alt_names":[],"object_type":"PAYLOAD","status":"ACTIVE","operator":null,"country":"US","launch_date":"2006-09-25","launch_site_code":"AFETR","launch_vehicle":null,"mission":null,"orbit_class":"UNKNOWN","rcs_meters":11.7863,"size_class":null,"mass_kg":null,"dimensions":null,"purposes":["nav"],"wikipedia_slug":null,"has_3d_model":false,"image_url":null,"decayed_at":null,"tle_current":{"epoch":"2026-05-25T03:19:08.535936Z","epoch_age_seconds":58994,"freshness":"FRESH","line1":"1 29486U 06042A   26145.13829324  .00000091  00000+0  00000+0 0  9999","line2":"2 29486  54.7074 152.2538 0106241  53.9126   3.0347  2.00571164143937","mean_motion":2.00571164,"eccentricity":0.0106241,"inclination_deg":54.7074,"raan_deg":152.2538,"arg_perigee_deg":53.9126,"mean_anomaly_deg":3.0347,"bstar":0,"rev_number":14393,"period_min":717.94966498773,"perigee_km":19899.370698083,"apogee_km":20463.716099128,"semimajor_km":26559.680398606,"source":"CELESTRAK","updated_at":"2026-05-25T13:38:23.728908Z"}}}